Date String (YYYY-MM-DD hh:mm:ss) UTC,Instrument flags,Ambient pressure (hPa),Sample flow (lpm),Bypass flow (lpm),Sample temperature (°C),Ambient temperature (°C),ASC tube jacket temperature (°C),LED temperature (°C),Box temperature (°C),Sample RH (%),Span deviation,Mass concentration (μg/m³),Mass concentration (μg/m³),Mass concentration (μg/m³)
DateTimeUTC,F1_M11,P_M11,Q1_M11,Q2_M11,T1_M11,T2_M11,T3_M11,T4_M11,T5_M11,U1_M11,ZSPAN_M11,X2_M11,X0_M11,X1_M11
2023-02-23 02:00:00,,0812.2,5.01,0.00,22.5,21.1,00.0,31.4,24.1,04.1,0000.0,0003.19,0005.56,0002.53
2023-02-23 02:01:00,,0812.2,5.02,0.00,22.6,22.1,00.0,31.4,24.3,04.1,0000.0,0003.21,0005.73,0002.54
2023-02-23 02:02:00,,0812.3,5.00,0.00,22.7,23.0,00.0,31.4,24.6,04.1,0000.0,0003.21,0005.77,0002.54
2023-02-23 02:03:00,,0812.2,5.00,0.00,22.8,23.1,00.0,31.4,24.6,04.1,0000.0,0003.19,0005.67,0002.52
2023-02-23 02:04:00,,0812.1,5.00,0.00,22.8,22.5,00.0,31.4,24.5,04.1,0000.0,0003.18,0005.29,0002.50
2023-02-23 02:05:00,,0812.0,5.01,0.00,22.7,21.9,00.0,31.4,24.3,04.1,0000.0,0003.18,0005.08,0002.50
2023-02-23 02:06:00,,0812.0,5.01,0.00,22.7,21.5,00.0,31.4,24.2,04.1,0000.0,0003.19,0005.12,0002.51
2023-02-23 02:07:00,,0811.9,5.00,0.00,22.6,21.0,00.0,31.4,24.1,04.1,0000.0,0003.19,0005.12,0002.49
2023-02-23 02:08:00,,0811.8,5.00,0.00,22.6,20.7,00.0,31.4,24.0,04.1,0000.0,0003.18,0005.11,0002.47
2023-02-23 02:09:00,,0812.1,5.01,0.00,22.5,21.0,00.0,31.4,24.1,04.1,0000.0,0003.16,0005.12,0002.45
2023-02-23 02:10:00,,0812.2,5.01,0.00,22.6,22.0,00.0,31.4,24.3,04.1,0000.0,0003.15,0005.04,0002.45
2023-02-23 02:11:00,,0812.1,5.00,0.00,22.7,22.8,00.0,31.4,24.6,04.1,0000.0,0003.11,0004.93,0002.41
2023-02-23 02:12:00,,0812.1,5.02,0.00,22.8,23.3,00.0,31.4,24.7,04.0,0000.0,0003.05,0004.78,0002.37
2023-02-23 02:13:00,,0812.1,4.98,0.00,22.9,22.9,00.0,31.4,24.6,04.0,0000.0,0003.00,0004.92,0002.33
2023-02-23 02:14:00,,0812.0,5.02,0.00,22.8,22.2,00.0,31.5,24.4,04.0,0000.0,0003.00,0005.14,0002.30
2023-02-23 02:15:00,,0812.1,4.99,0.00,22.7,21.5,00.0,31.5,24.1,04.0,0000.0,0002.99,0005.12,0002.29
2023-02-23 02:16:00,,0812.3,5.00,0.00,22.6,21.0,00.0,31.4,23.9,04.0,0000.0,0002.94,0005.02,0002.27
2023-02-23 02:17:00,,0812.3,5.00,0.00,22.6,20.8,00.0,31.4,23.9,04.1,0000.0,0002.86,0004.85,0002.25
2023-02-23 02:18:00,,0812.2,5.02,0.00,22.6,21.5,00.0,31.4,24.1,04.1,0000.0,0002.82,0004.74,0002.24
2023-02-23 02:19:00,,0812.1,4.99,0.00,22.7,22.4,00.0,31.4,24.4,04.0,0000.0,0002.81,0004.69,0002.23
2023-02-23 02:20:00,,0812.2,5.02,0.00,22.8,23.2,00.0,31.4,24.6,04.0,0000.0,0002.81,0004.59,0002.23
2023-02-23 02:21:00,,0812.1,5.02,0.00,22.9,23.3,00.0,31.4,24.7,04.0,0000.0,0002.76,0004.57,0002.21
2023-02-23 02:22:00,,0812.0,5.01,0.00,22.8,22.6,00.0,31.5,24.5,04.0,0000.0,0002.75,0004.51,0002.19
2023-02-23 02:23:00,,0812.1,4.99,0.00,22.8,21.8,00.0,31.5,24.2,04.0,0000.0,0002.78,0004.53,0002.18
2023-02-23 02:24:00,,0812.2,5.01,0.00,22.7,21.2,00.0,31.5,24.0,04.0,0000.0,0002.83,0004.44,0002.20
2023-02-23 02:25:00,,0812.2,4.99,0.00,22.6,20.9,00.0,31.4,23.9,04.0,0000.0,0002.89,0004.45,0002.21
2023-02-23 02:26:00,,0812.2,5.00,0.00,22.6,21.6,00.0,31.4,24.2,04.0,0000.0,0002.91,0004.71,0002.22
2023-02-23 02:27:00,,0812.2,4.99,0.00,22.7,22.4,00.0,31.4,24.4,04.0,0000.0,0002.94,0004.88,0002.22
2023-02-23 02:28:00,,0812.1,4.98,0.00,22.8,23.2,00.0,31.4,24.6,04.0,0000.0,0002.99,0005.00,0002.23
2023-02-23 02:29:00,,0812.1,5.00,0.00,22.9,23.3,00.0,31.5,24.7,04.0,0000.0,0003.01,0005.11,0002.23
2023-02-23 02:30:00,,0812.1,4.98,0.00,22.9,22.5,00.0,31.5,24.6,04.0,0000.0,0003.02,0005.10,0002.23
2023-02-23 02:31:00,,0812.1,5.00,0.00,22.8,21.8,00.0,31.5,24.3,04.0,0000.0,0003.02,0005.13,0002.24
2023-02-23 02:32:00,,0812.1,4.99,0.00,22.7,21.2,00.0,31.5,24.1,04.0,0000.0,0003.05,0005.17,0002.25
2023-02-23 02:33:00,,0812.3,5.00,0.00,22.6,20.9,00.0,31.5,24.0,04.0,0000.0,0003.05,0005.16,0002.27
2023-02-23 02:34:00,,0812.4,5.01,0.00,22.7,21.7,00.0,31.4,24.2,04.0,0000.0,0003.05,0005.15,0002.30
2023-02-23 02:35:00,,0812.5,4.97,0.00,22.8,22.6,00.0,31.4,24.5,04.0,0000.0,0003.06,0005.21,0002.33
2023-02-23 02:36:00,,0812.6,5.00,0.00,22.9,23.2,00.0,31.4,24.7,04.0,0000.0,0003.06,0005.08,0002.36
2023-02-23 02:37:00,,0812.7,5.00,0.00,22.9,23.3,00.0,31.5,24.7,04.0,0000.0,0003.07,0004.87,0002.37
2023-02-23 02:38:00,,0812.7,5.00,0.00,22.9,22.6,00.0,31.5,24.6,04.0,0000.0,0003.08,0004.78,0002.39
2023-02-23 02:39:00,,0812.6,4.98,0.00,22.8,21.9,00.0,31.5,24.3,04.0,0000.0,0003.08,0004.76,0002.39
2023-02-23 02:40:00,,0812.7,5.00,0.00,22.7,21.3,00.0,31.5,24.1,04.0,0000.0,0003.06,0004.67,0002.39
2023-02-23 02:41:00,,0812.7,5.00,0.00,22.7,21.0,00.0,31.5,24.0,04.0,0000.0,0003.02,0004.61,0002.38
2023-02-23 02:42:00,,0812.7,5.01,0.00,22.7,21.7,00.0,31.5,24.3,04.0,0000.0,0002.98,0004.55,0002.36
2023-02-23 02:43:00,,0812.8,4.96,0.00,22.8,22.5,00.0,31.4,24.5,03.9,0000.0,0002.92,0004.36,0002.33
2023-02-23 02:44:00,,0812.9,5.00,0.00,22.9,23.2,00.0,31.5,24.7,03.9,0000.0,0002.90,0004.34,0002.31
2023-02-23 02:45:00,,0813.2,5.00,0.00,23.0,23.4,00.0,31.5,24.8,03.9,0000.0,0002.90,0004.32,0002.29
2023-02-23 02:46:00,,0812.9,5.02,0.00,22.9,22.6,00.0,31.5,24.6,03.9,0000.0,0002.86,0004.22,0002.27
2023-02-23 02:47:00,,0812.8,5.00,0.00,22.9,21.9,00.0,31.6,24.4,03.9,0000.0,0002.79,0004.10,0002.23
2023-02-23 02:48:00,,0812.8,5.00,0.00,22.8,21.3,00.0,31.5,24.1,03.9,0000.0,0002.77,0004.09,0002.23
2023-02-23 02:49:00,,0812.8,5.00,0.00,22.7,21.0,00.0,31.5,24.0,03.9,0000.0,0002.75,0004.13,0002.22
2023-02-23 02:50:00,,0812.8,5.02,0.00,22.7,21.7,00.0,31.5,24.3,03.9,0000.0,0002.71,0004.02,0002.20
2023-02-23 02:51:00,,0812.9,4.99,0.00,22.8,22.6,00.0,31.5,24.5,03.9,0000.0,0002.72,0004.03,0002.20
2023-02-23 02:52:00,,0812.8,5.02,0.00,22.9,23.2,00.0,31.5,24.7,03.9,0000.0,0002.73,0004.18,0002.22
2023-02-23 02:53:00,,0812.9,5.00,0.00,23.0,23.3,00.0,31.5,24.8,03.8,0000.0,0002.76,0004.45,0002.24
2023-02-23 02:54:00,,0813.0,5.00,0.00,22.9,22.6,00.0,31.6,24.6,03.8,0000.0,0002.80,0005.76,0002.26
2023-02-23 02:55:00,,0812.9,5.01,0.00,22.9,21.9,00.0,31.6,24.3,03.9,0000.0,0002.81,0005.82,0002.28
2023-02-23 02:56:00,,0813.1,5.00,0.00,22.8,21.2,00.0,31.6,24.1,03.8,0000.0,0002.78,0005.91,0002.25
2023-02-23 02:57:00,,0813.2,5.01,0.00,22.7,21.4,00.0,31.5,24.2,03.8,0000.0,0002.72,0005.97,0002.22
2023-02-23 02:58:00,,0813.1,5.01,0.00,22.8,22.3,00.0,31.5,24.4,03.8,0000.0,0002.73,0006.06,0002.20
2023-02-23 02:59:00,,0813.1,5.01,0.00,22.9,23.0,00.0,31.5,24.7,03.8,0000.0,0002.70,0006.01,0002.16
